Wind_Speed
17 19 20 21 22 23 24 25 26 27 28 30 30 31 32 32 33 33 33 34 35 36 35 34 33 32 31 30 29 28 27 26 26 25 25 24 23 22 21 20 18 17 15 14 13 13 12 12 11 10 10 10 10 11 11 11 12 12 11 11 11 11 10 10 9 8 8 7 7 7 7 8 9 9 10 11 12 13 13 14 14 14 13 13 12 12 12 12
17 18 19 20 22 24 25 27 28 28 29 30 31 31 31 31 32 32 31 32 32 32 32 31 30 29 27 26 25 24 24 23 22 21 21 21 20 19 18 17 15 15 14 13 13 13 12 12 12 12 12 12 12 12 12 12 12 11 11 10 9 9 8 8 7 6 6 6 6 6 7 7 8 9 10 11 11 12 13 13 14 14 14 14 13 13 12 13
16 17 19 21 23 25 27 28 30 31 31 31 31 31 30 29 29 29 28 27 27 28 27 27 26 26 25 24 23 23 22 20 19 17 17 17 16 14 14 13 12 12 12 12 13 13 14 14 14 14 13 13 13 13 12 12 11 10 9 8 7 6 6 5 5 5 5 5 5 6 7 7 8 9 10 10 11 11 12 12 13 13 13 13 13 12 12 12
15 16 19 21 24 26 28 30 31 30 29 28 27 26 26 25 24 24 23 23 24 24 24 24 24 24 24 23 22 21 20 18 16 14 13 13 12 11 10 10 10 10 11 13 14 15 15 15 15 14 14 13 12 11 10 9 9 8 6 5 5 5 4 4 4 4 3 4 4 6 7 7 8 9 9 10 10 11 11 12 12 12 12 12 12 12 12 12
14 15 19 22 25 27 29 30 29 27 25 24 23 22 21 21 21 20 20 20 21 22 22 23 22 22 22 21 20 19 18 16 14 12 11 10 9 9 8 9 10 11 12 14 16 16 15 15 14 14 13 12 11 10 8 8 7 5 4 3 3 3 2 2 2 2 2 3 5 6 6 7 8 9 9 9 10 10 10 11 12 12 12 12 11 11 11 12
14 15 18 22 25 27 29 28 26 24 22 21 20 19 18 18 18 17 17 17 19 20 21 21 21 20 19 18 17 16 15 14 12 11 10 9 9 8 8 9 11 13 14 15 15 15 15 14 13 12 11 11 10 9 7 6 5 3 2 2 2 2 2 2 2 3 3 4 5 6 7 8 9 10 10 10 10 11 11 11 12 13 13 13 12 11 11 12
14 15 18 21 24 27 28 26 24 21 19 18 16 15 15 15 15 15 15 16 18 19 19 19 18 17 16 16 14 14 13 11 10 10 9 8 9 9 9 11 13 14 15 15 15 14 14 13 12 11 10 9 8 7 6 4 3 3 3 3 3 4 4 5 5 5 5 6 7 8 9 10 10 11 12 12 12 13 13 14 14 14 14 14 14 13 12 11
13 16 18 20 23 25 27 25 22 19 18 15 13 12 12 13 13 14 15 16 17 17 17 16 15 15 14 13 12 11 10 9 9 8 8 8 9 10 11 12 14 14 15 14 14 13 12 11 11 9 8 7 6 5 4 4 4 4 4 4 4 5 6 6 5 5 6 7 7 8 9 10 10 11 12 13 14 14 14 15 15 15 14 13 14 14 13 13
12 16 18 20 22 24 25 24 22 19 17 14 12 11 11 12 12 13 15 15 16 15 15 14 14 13 11 10 10 9 8 8 7 7 7 7 9 10 12 13 14 14 14 14 12 12 11 10 9 8 6 5 4 4 5 5 5 5 5 4 4 5 5 5 5 6 6 7 7 8 8 9 10 11 11 12 12 12 12 12 12 13 13 13 13 14 14 14
11 15 18 20 22 23 23 23 21 19 17 14 12 11 11 12 12 13 15 16 16 16 15 14 13 12 11 10 9 9 9 8 7 6 6 7 8 10 11 13 14 14 14 13 12 11 10 9 8 6 5 3 3 4 5 5 5 5 5 4 4 4 4 5 5 6 7 7 7 6 7 8 8 8 8 7 7 7 7 8 9 10 11 12 12 12 13 15
12 15 18 21 22 23 22 22 21 20 17 14 12 10 10 11 13 14 15 16 16 16 16 15 13 12 11 10 10 10 10 9 8 7 7 7 9 10 12 13 14 14 14 14 13 11 10 8 7 5 3 2 2 4 4 5 5 5 6 6 5 6 6 7 7 7 7 6 5 5 4 4 4 3 4 4 5 6 7 8 9 10 11 12 13 13 12 13
13 15 18 21 23 23 23 22 21 20 18 15 12 10 10 10 12 14 15 16 16 16 15 14 13 11 10 10 10 11 11 10 9 9 10 10 10 12 13 14 14 14 13 13 12 11 9 7 5 4 3 2 2 3 3 5 6 6 6 6 6 7 8 8 8 7 6 5 4 4 3 3 3 4 5 6 7 8 8 9 10 11 12 14 15 15 14 13
13 16 18 21 23 23 24 23 22 21 19 17 14 12 11 10 12 13 15 16 16 16 15 14 12 11 11 10 10 11 12 11 10 10 11 12 12 14 15 15 15 14 13 13 11 9 8 7 4 3 2 1 2 2 2 4 5 5 4 5 6 7 8 8 7 6 5 4 4 4 3 3 3 4 5 6 7 7 8 10 11 12 14 15 16 17 16 15
14 16 18 21 23 24 24 24 24 22 20 19 17 15 13 12 12 13 15 16 16 16 15 14 13 12 12 11 11 12 12 12 11 11 11 12 14 15 16 16 16 15 14 12 11 9 8 6 5 4 3 2 2 1 1 3 3 3 3 4 6 6 6 5 4 4 3 3 3 2 1 1 2 3 4 5 6 7 8 10 12 14 15 15 16 17 17 17
14 16 19 21 23 25 25 25 25 24 22 20 19 17 16 15 14 14 15 16 17 17 16 15 14 13 12 11 11 12 12 12 11 11 12 13 15 16 16 16 16 15 14 12 11 9 8 6 5 4 3 2 2 2 0 2 2 2 3 4 4 3 3 2 1 2 2 2 1 0 1 2 3 4 4 5 7 8 9 11 12 14 15 16 17 17 17 17
14 16 18 21 23 25 26 26 26 26 24 22 20 19 18 17 16 16 16 17 18 18 17 16 15 14 13 12 12 12 13 12 11 11 12 14 15 16 16 16 16 15 13 12 11 10 8 7 6 5 4 3 2 3 2 1 2 1 2 2 2 1 1 1 1 2 3 3 4 4 5 5 6 7 8 8 9 10 11 12 13 15 16 17 17 17 17 16
15 16 18 20 23 25 27 28 28 27 26 24 22 21 20 19 18 17 17 18 19 19 19 18 17 16 15 14 13 13 13 13 12 11 12 13 15 15 16 16 15 15 14 13 11 11 9 9 8 6 5 4 3 3 3 3 3 2 2 2 3 3 3 4 4 5 5 5 6 7 8 8 9 10 11 11 11 12 14 14 14 16 17 18 18 17 17 16
15 17 18 20 22 24 27 28 29 29 28 27 24 23 21 21 20 20 19 19 19 20 20 19 18 17 16 16 15 14 14 13 12 12 12 13 15 16 16 16 16 15 14 13 13 12 11 10 9 8 7 5 4 4 4 5 5 4 3 4 5 5 6 7 8 8 8 7 7 8 9 10 10 11 12 13 13 13 15 15 15 16 17 19 19 19 18 18
17 18 19 20 21 24 26 28 29 30 30 29 28 26 24 23 22 22 21 21 21 21 21 21 20 19 18 17 17 16 15 15 14 13 13 14 15 16 16 16 16 16 15 15 14 13 12 12 10 9 8 7 6 6 6 6 6 5 5 5 6 7 8 8 9 11 12 11 10 9 10 11 11 12 13 14 14 14 16 17 17 17 18 19 20 20 20 20
18 19 20 21 22 24 25 27 29 30 31 31 31 29 27 26 25 24 24 23 22 22 22 22 22 21 20 19 18 18 17 16 15 14 13 14 15 16 16 17 17 17 16 16 16 15 14 13 11 11 10 9 8 8 7 7 7 7 7 7 8 9 9 10 11 12 13 14 13 12 12 12 13 13 14 15 16 17 17 18 18 18 19 20 21 21 21 21
18 20 21 22 23 24 25 27 28 30 32 32 33 32 31 29 27 27 26 25 25 24 24 24 23 23 23 21 20 19 18 17 17 15 15 14 15 15 16 17 17 18 18 18 17 16 15 14 13 12 12 11 10 9 9 8 8 9 9 9 10 10 11 12 12 13 15 15 15 14 14 14 14 15 15 16 18 19 20 20 20 20 21 21 21 22 22 22
19 20 22 23 24 25 26 27 28 30 31 33 34 34 34 32 31 30 29 28 27 27 26 26 25 25 24 24 22 21 20 19 18 18 17 16 16 16 16 16 17 18 19 19 19 18 16 15 15 14 14 13 12 11 11 10 10 11 11 12 12 12 13 14 15 15 16 16 16 16 15 15 15 15 16 17 19 20 21 21 22 22 22 22 21 22 23 22
21 21 22 24 25 26 27 28 28 29 31 32 34 35 36 35 34 33 32 31 30 29 28 28 27 27 26 25 24 23 22 21 21 20 19 18 17 17 17 17 17 18 19 19 19 19 18 17 16 16 15 14 14 14 13 13 13 13 13 14 14 14 15 15 16 17 17 17 17 17 16 15 16 16 16 17 19 20 21 22 23 23 23 23 22 23 23 24
24 23 24 24 25 27 28 29 29 30 31 32 33 35 36 36 37 36 35 35 33 31 30 30 29 29 28 27 26 25 24 24 23 22 21 21 20 19 19 19 19 19 20 20 20 20 19 18 17 17 16 16 16 16 16 16 16 16 16 16 16 16 17 17 17 18 18 18 18 18 16 14 15 16 16 17 19 19 21 22 23 24 24 24 23 23 24 25
27 26 25 25 26 28 29 30 30 31 32 33 34 35 36 37 38 38 38 37 36 34 33 32 31 30 29 29 28 27 26 26 25 24 24 23 22 22 21 21 21 21 21 22 22 21 20 20 19 18 18 18 18 18 19 19 19 19 19 19 18 19 19 19 19 18 18 18 18 19 18 15 15 16 17 17 19 20 20 22 23 24 24 24 24 24 25 27
30 29 28 27 28 28 30 31 31 32 33 34 34 35 36 37 38 39 39 39 38 36 36 35 34 33 32 30 29 29 29 27 27 26 26 25 25 24 24 23 23 23 23 23 23 22 22 21 20 20 20 20 20 21 21 21 21 21 21 21 20 20 20 20 21 20 20 19 18 19 21 19 16 17 19 19 20 21 22 23 24 24 24 24 24 25 27 28
33 32 31 30 30 29 30 31 32 33 34 34 35 36 37 38 40 40 40 42 40 37 36 36 35 34 33 31 31 31 30 28 28 28 27 27 27 26 26 25 25 25 25 25 24 23 23 23 22 22 22 22 22 23 23 23 23 22 23 23 23 23 23 22 22 22 21 21 20 20 23 24 19 18 21 22 23 24 24 25 26 26 26 25 25 26 27 29
34 35 34 33 32 32 32 32 32 34 35 35 36 36 37 38 40 41 42 45 42 37 36 37 37 36 34 33 33 33 32 30 30 30 29 29 29 28 28 28 28 27 27 27 25 25 25 25 25 24 24 24 24 25 25 25 25 24 24 25 25 25 25 24 24 24 24 24 22 22 25 27 23 21 23 25 25 26 27 28 28 28 27 27 27 27 28 29
34 35 36 36 35 34 34 33 33 34 35 36 37 38 38 39 40 41 44 47 42 36 36 37 37 37 35 34 35 34 33 33 32 31 31 31 31 30 29 29 29 29 29 28 27 27 27 27 27 26 26 26 26 27 26 26 26 25 25 26 26 27 27 27 27 27 28 27 25 26 28 30 27 23 25 28 28 29 30 31 31 30 30 30 29 29 29 29
35 35 36 37 37 37 36 35 35 35 36 37 38 39 39 40 40 42 46 47 41 36 36 38 37 36 36 36 36 35 34 34 34 33 33 33 32 32 31 31 31 31 30 30 29 29 29 29 29 28 28 28 28 28 28 28 28 27 27 27 28 29 29 29 29 29 31 30 28 29 30 33 32 27 29 32 32 33 34 34 34 33 32 32 31 31 31 30
36 36 37 37 38 39 39 38 37 37 37 37 39 40 41 42 43 45 47 42 36 36 38 38 38 37 37 37 37 37 36 35 35 35 35 35 34 33 33 33 32 32 32 32 31 31 31 31 30 30 30 30 30 30 29 29 29 29 30 30 30 31 31 32 32 32 33 32 32 32 33 35 35 32 34 37 37 37 37 37 37 36 35 34 34 33 32 31
37 37 37 38 39 39 41 41 40 38 38 39 40 41 42 44 46 48 44 36 33 37 38 37 39 39 39 39 38 38 38 37 36 36 36 36 36 35 35 34 33 34 34 33 33 33 33 33 32 32 32 31 31 31 31 31 31 32 32 32 33 33 34 35 34 35 35 35 35 35 36 38 37 35 37 40 40 41 40 39 38 37 37 36 36 35 33 32
39 39 38 38 39 40 41 41 42 41 40 40 41 42 43 47 49 47 41 35 36 39 37 35 37 39 40 41 40 40 40 39 38 38 38 38 37 37 37 36 35 36 35 35 35 35 35 35 34 34 33 33 33 32 32 33 33 34 33 34 35 35 37 38 37 37 37 37 38 38 39 40 38 37 39 40 42 43 42 41 40 38 38 37 37 36 34 33
41 41 41 40 39 40 41 42 42 43 43 42 42 44 46 49 49 44 40 37 38 40 38 35 36 37 38 40 42 42 41 41 40 40 40 40 39 39 38 37 37 37 37 37 37 37 37 36 35 35 35 35 34 34 34 35 35 35 35 35 36 36 38 40 39 40 40 40 41 40 41 41 39 40 40 40 41 42 40 39 38 37 37 37 37 36 35 35
42 42 42 42 41 41 42 43 43 43 45 45 45 47 49 49 47 42 39 39 41 43 41 38 37 37 37 38 41 42 43 43 43 42 42 42 41 40 39 38 38 39 39 39 39 39 40 38 36 36 37 36 36 36 36 37 37 37 36 37 37 37 39 42 42 42 43 44 43 42 41 41 39 39 37 37 39 39 38 37 36 36 35 35 36 36 35 35
43 43 43 44 44 43 43 43 44 44 46 47 49 51 50 48 46 43 41 41 42 44 43 41 40 40 39 38 39 40 42 43 43 43 44 44 43 42 40 39 39 40 40 41 41 42 42 41 37 37 38 37 37 38 37 38 39 39 38 38 39 40 41 43 44 44 44 47 46 44 42 39 36 34 33 34 37 37 37 36 36 36 35 35 35 35 35 34
43 44 44 45 45 45 45 44 44 45 46 48 51 53 51 49 47 44 42 41 42 44 45 44 43 42 42 40 38 38 40 41 42 43 44 44 46 45 42 40 41 41 41 42 43 44 44 43 40 39 39 39 38 39 39 39 40 40 40 40 40 42 42 43 45 46 46 48 47 44 42 37 32 31 32 34 37 37 37 37 37 36 36 36 36 35 34 34
42 43 45 45 46 46 47 47 46 46 47 50 52 53 52 51 48 45 43 42 43 45 46 47 46 45 45 43 39 38 39 41 40 40 42 43 46 45 42 41 42 42 42 43 45 45 45 45 43 41 41 41 40 41 40 39 40 41 41 41 42 43 43 43 45 46 46 48 47 45 41 34 29 32 36 38 38 37 37 37 36 36 36 36 35 35 34 33
41 42 43 45 46 47 48 49 48 48 49 50 52 52 52 50 47 46 45 43 44 46 48 48 48 48 48 46 43 40 41 42 41 40 41 42 44 43 41 41 43 43 44 45 46 46 45 47 47 43 42 43 42 42 41 40 41 43 43 43 43 43 44 44 45 45 45 46 46 45 41 33 29 34 39 39 38 37 36 36 36 36 35 35 35 34 34 32
41 41 41 43 45 47 48 49 50 51 52 52 51 52 52 50 48 47 46 46 45 47 49 50 50 50 49 48 46 44 43 44 43 43 43 43 42 40 38 40 42 43 44 46 47 47 47 48 49 46 43 44 43 42 42 42 43 44 44 44 43 43 44 44 43 42 42 43 44 45 43 33 30 36 38 36 37 36 36 36 36 36 36 35 35 34 33 32
41 41 41 41 43 45 47 49 50 52 53 54 52 51 51 51 50 47 47 47 47 48 50 51 51 51 51 50 49 47 45 46 46 46 46 44 41 39 38 38 39 40 43 45 46 47 48 49 50 48 46 45 44 43 44 45 44 45 44 43 42 42 42 42 41 40 39 42 43 45 44 35 31 35 36 35 37 37 37 37 37 37 37 37 36 35 34 32
41 41 41 41 42 43 46 48 50 52 53 54 54 53 52 52 51 50 48 48 49 50 51 52 53 52 52 51 50 49 48 49 49 49 48 46 42 41 40 38 38 39 40 42 43 44 46 48 50 49 47 45 45 45 45 45 44 44 43 41 39 40 40 40 41 39 39 41 42 45 45 37 33 35 35 35 38 37 37 38 38 39 39 38 38 36 34 32
43 41 41 41 42 42 44 47 49 51 52 52 54 55 54 53 52 51 50 49 50 51 52 53 54 53 52 51 51 51 51 51 52 51 51 49 46 44 43 41 39 39 40 41 41 41 44 46 47 46 45 44 43 43 43 43 43 42 40 38 38 39 39 40 41 41 41 41 41 44 46 39 35 36 35 36 38 36 36 37 37 38 38 38 38 36 33 31
46 44 42 43 43 42 44 45 47 49 51 52 54 56 56 56 54 52 52 51 51 51 53 54 56 55 54 52 52 52 52 54 54 53 52 52 50 47 45 44 43 42 42 43 42 43 44 45 45 45 44 42 40 39 39 39 39 39 37 37 38 39 40 41 42 42 43 42 41 44 46 41 36 36 35 36 38 36 35 36 36 37 37 37 36 35 32 29
50 48 46 45 45 45 44 44 45 47 49 52 54 55 56 58 57 54 53 52 52 52 53 54 56 57 56 54 53 53 53 55 55 54 52 53 52 50 48 47 46 45 45 45 45 46 47 48 47 46 45 42 39 37 37 36 37 38 37 37 39 40 41 42 43 44 44 43 42 44 45 41 36 34 34 36 39 37 35 36 36 36 37 37 36 34 32 30
54 53 50 48 48 48 47 46 46 47 48 50 54 55 56 57 58 57 55 54 53 54 54 55 56 58 59 58 56 55 53 53 55 55 52 52 52 51 50 49 49 48 48 48 49 50 51 52 50 48 47 44 39 38 40 39 39 40 39 40 41 42 43 44 45 45 43 44 45 43 42 42 37 31 31 37 39 38 36 36 36 35 36 36 36 34 33 32
57 57 55 54 52 51 50 50 49 49 49 50 53 55 56 56 57 58 58 57 55 55 56 56 56 57 59 59 58 56 54 52 53 54 53 52 52 51 50 49 50 50 50 51 52 54 55 55 53 52 50 46 42 43 43 42 42 43 43 43 43 44 45 46 45 44 43 46 47 42 40 43 38 29 31 37 40 38 37 37 36 35 35 36 36 35 34 33
61 60 60 59 58 55 54 54 53 53 52 52 53 54 56 57 58 59 59 59 58 57 57 58 57 57 58 59 58 57 55 53 53 53 53 52 51 50 49 49 49 51 52 53 54 56 58 58 56 54 53 49 47 47 47 46 45 46 46 46 45 46 47 46 44 44 45 47 45 41 41 43 37 29 31 37 40 39 38 38 38 36 35 35 36 35 35 34
63 63 63 64 63 59 58 58 57 56 56 56 55 53 54 57 59 59 59 60 61 59 59 59 58 57 58 58 58 57 56 55 53 53 52 51 51 50 50 50 50 51 53 55 56 57 59 60 58 56 56 53 51 51 50 49 49 49 49 48 48 47 46 46 45 45 47 46 43 42 45 43 34 30 33 37 39 41 40 39 39 38 36 35 35 34 34 34
65 65 66 68 67 64 62 62 61 61 60 60 58 54 53 56 58 59 60 61 61 61 61 60 58 58 59 59 59 59 58 56 55 54 53 53 52 52 53 53 53 54 55 56 57 58 60 60 59 57 57 55 53 53 53 53 53 54 53 52 50 48 47 47 46 45 46 45 43 44 47 43 34 32 35 36 38 42 42 40 41 40 38 36 35 34 33 33
67 67 69 70 69 67 67 66 65 65 64 62 60 57 56 57 57 59 61 62 62 62 62 61 60 61 61 60 58 58 58 58 57 55 56 57 56 56 56 57 57 58 58 58 58 59 60 60 58 57 59 58 54 53 54 54 56 59 59 55 51 48 48 47 46 45 45 45 46 46 46 43 37 34 35 35 37 42 42 41 41 40 39 39 37 35 34 35
68 68 70 72 72 70 69 68 68 68 66 63 61 60 59 59 57 59 61 63 63 63 63 62 63 64 64 61 58 57 59 61 58 56 57 59 60 60 59 60 60 60 60 60 60 60 60 60 58 57 59 59 56 55 55 56 60 65 62 53 48 48 49 48 47 46 44 46 48 48 45 42 39 38 37 36 38 41 42 41 40 40 40 40 39 36 35 35
Wind_Direction
81 89 94 97 98 98 98 100 101 102 103 104 104 104 104 104 104 105 104 104 104 103 102 101 100 101 101 102 103 104 105 107 110 113 117 119 121 124 126 129 132 135 139 143 146 150 151 150 146 141 137 137 138 139 139 134 126 122 121 121 118 116 114 112 107 101 94 85 72 59 48 37 31 23 18 17 16 13 11 9 7 4 356 346 337 329 322 315
87 94 100 104 104 104 104 105 106 106 106 105 105 105 105 106 105 105 105 105 105 105 105 105 105 105 107 108 109 110 111 113 116 119 120 121 123 126 128 132 137 141 145 147 148 148 145 141 133 127 128 133 134 132 129 124 121 120 118 116 115 113 110 108 100 89 77 64 51 40 31 23 18 12 7 5 4 3 2 2 3 2 359 353 345 336 328 320
93 101 106 110 111 110 110 110 110 109 108 107 107 106 107 107 107 107 107 108 108 109 109 110 111 112 113 114 115 116 116 117 118 119 119 120 123 126 129 134 139 143 145 145 144 140 135 129 124 126 131 134 131 126 124 120 118 116 114 117 117 110 105 99 86 73 62 47 35 27 23 16 11 7 2 358 354 351 349 349 351 352 353 351 346 340 333 325
99 107 113 117 118 117 117 116 115 113 112 110 109 108 109 109 109 109 110 111 112 113 113 114 116 117 117 118 118 118 118 117 116 116 116 116 119 124 130 136 140 142 142 142 138 132 127 126 127 131 134 131 126 122 120 115 113 113 116 123 113 99 89 79 72 63 55 39 25 16 13 8 2 358 355 353 349 343 339 337 336 337 337 339 337 333 328 325
107 114 121 124 125 125 124 122 120 118 116 113 111 110 109 109 109 110 112 114 114 115 116 117 117 118 118 118 118 117 116 116 115 113 112 112 115 122 131 138 140 140 141 139 132 127 125 128 131 133 133 128 121 115 111 108 108 111 114 106 84 74 58 50 46 26 15 12 6 359 355 350 346 344 341 341 340 336 333 328 325 323 321 321 324 324 322 319
117 124 130 131 132 132 131 130 127 124 120 116 112 110 111 110 109 111 114 116 116 117 117 117 117 117 117 117 117 116 115 116 116 115 113 114 117 122 132 139 139 138 137 134 129 128 130 132 133 133 131 123 116 111 107 103 97 90 72 42 26 3 344 332 324 327 333 340 342 338 334 331 330 328 327 326 324 321 318 313 310 309 308 309 312 316 320 320
128 133 140 140 139 139 139 138 136 131 127 121 117 115 115 115 115 116 117 118 119 120 119 118 117 118 118 117 116 114 115 118 118 117 116 118 122 127 135 138 137 136 134 131 131 133 135 136 135 133 127 119 114 111 104 92 68 41 5 346 333 315 308 306 307 312 319 327 328 326 324 322 320 319 318 315 312 308 303 300 297 297 300 302 305 310 315 318
139 142 148 149 147 147 146 146 145 141 136 131 126 124 124 125 125 126 126 126 125 123 122 120 120 120 120 119 118 116 119 125 124 123 123 126 131 135 140 139 137 136 135 135 137 139 140 140 138 133 126 119 114 106 91 69 43 18 347 326 317 308 301 300 307 319 328 333 333 328 324 321 318 317 315 311 308 304 299 297 296 296 298 300 302 305 308 311
153 152 155 157 155 155 154 153 153 151 146 143 139 135 134 134 135 136 136 135 132 130 128 126 125 124 123 121 120 119 123 132 132 130 132 136 141 146 148 145 142 142 143 144 146 146 145 146 144 135 128 122 113 96 76 57 36 14 350 333 324 314 309 317 336 346 350 349 344 335 328 324 321 318 315 311 307 304 302 301 302 304 305 305 303 303 304 304
171 164 163 164 163 162 162 161 160 160 157 153 149 144 143 143 144 145 144 143 142 140 140 140 138 137 136 135 132 130 134 141 143 141 146 153 158 161 158 153 153 154 154 153 154 155 154 154 149 137 132 128 110 90 73 56 43 28 14 4 358 354 359 9 13 13 11 5 356 344 333 327 323 319 318 319 320 323 328 330 331 330 326 323 319 313 307 302
188 178 172 171 170 169 170 170 169 168 166 164 161 156 153 152 153 153 153 153 153 153 154 155 154 153 153 152 149 148 151 156 160 161 163 169 173 172 166 163 164 165 163 162 163 163 162 161 155 144 140 132 110 95 75 59 51 39 30 27 25 27 30 32 33 33 30 22 15 6 352 346 343 344 1 17 22 22 20 16 8 2 356 350 344 336 323 309
200 191 184 179 177 176 176 178 178 177 176 176 175 173 169 166 165 165 164 165 165 166 167 167 168 167 167 169 167 164 165 170 174 173 172 176 180 179 174 172 173 174 172 171 170 168 167 168 165 157 150 136 122 108 77 60 53 42 36 34 33 35 37 40 43 46 48 50 57 59 64 76 72 60 52 44 37 32 27 23 16 10 5 358 351 344 336 325
209 202 194 189 186 184 183 184 185 186 187 187 188 188 188 185 182 179 177 177 176 176 178 181 183 182 182 186 184 178 176 179 182 182 180 181 184 184 181 180 180 181 180 179 175 174 175 178 177 177 172 151 147 125 70 55 52 45 37 34 38 39 40 44 51 64 75 90 101 96 91 82 66 50 41 31 23 18 15 15 12 8 3 357 351 344 338 333
215 211 204 198 194 192 190 189 190 193 196 198 199 200 200 200 198 194 191 190 188 188 190 195 199 199 198 198 196 190 186 186 187 188 188 188 189 189 187 185 186 186 187 186 183 184 188 190 192 195 197 186 179 173 60 42 43 41 33 33 38 38 43 50 66 94 117 132 129 111 95 46 16 11 9 3 357 355 358 3 5 3 359 355 351 345 339 336
217 217 213 207 202 200 198 196 195 197 202 206 208 208 208 209 208 206 204 202 201 201 204 208 211 212 211 208 205 200 196 194 194 193 193 193 195 195 193 191 191 192 194 194 192 195 199 203 205 210 220 217 201 204 190 10 11 27 20 21 28 40 50 53 92 146 170 177 174 354 321 315 324 329 336 340 339 339 343 350 354 354 352 351 350 346 341 338
216 219 219 215 210 206 205 203 202 202 204 209 213 214 215 215 215 214 212 211 211 211 214 217 217 218 218 217 214 209 205 203 201 200 200 199 199 200 200 198 198 199 202 203 202 205 209 214 218 222 231 231 221 221 232 292 305 341 1 352 349 10 20 338 254 245 266 280 289 301 309 316 321 323 327 331 332 331 335 341 344 344 344 344 346 346 342 338
213 218 221 221 218 214 211 209 208 207 208 210 215 218 220 220 220 220 219 218 217 218 220 222 222 222 223 223 220 216 214 212 209 208 208 206 205 206 207 206 206 208 210 211 212 215 218 223 228 230 237 242 237 234 242 261 270 290 321 319 314 315 315 305 288 277 276 279 284 294 304 312 317 318 319 323 326 326 328 335 336 336 337 336 338 341 341 337
214 215 219 223 224 222 218 215 214 213 213 213 216 220 223 225 225 225 225 224 223 223 224 226 226 227 227 226 226 224 221 219 216 214 214 213 212 213 213 213 215 216 217 219 221 224 227 231 235 237 241 246 248 243 246 255 262 280 306 314 311 310 306 301 294 289 284 281 282 290 300 307 312 313 313 315 319 322 323 327 330 331 332 332 332 335 337 335
220 217 218 221 225 226 225 222 220 219 218 218 219 221 224 227 228 228 229 228 228 228 228 229 229 230 230 229 229 229 227 226 223 220 220 219 218 218 220 220 222 224 225 227 229 231 234 237 239 241 243 247 252 248 246 256 263 276 292 298 297 296 293 291 291 291 290 290 290 293 298 305 310 311 312 313 316 320 321 322 326 328 328 328 329 330 332 332
227 223 220 220 224 227 228 227 225 224 224 223 222 223 226 228 230 232 232 231 231 232 232 232 232 233 233 232 232 232 232 231 229 227 225 225 224 224 225 226 228 230 231 232 234 235 237 239 240 242 245 247 250 251 253 260 267 274 279 281 283 285 285 286 289 291 291 291 292 295 300 306 309 310 313 315 316 318 319 319 322 324 324 326 328 328 328 328
234 229 226 224 224 226 229 230 229 228 227 227 227 227 228 230 232 234 234 234 234 234 235 235 235 236 236 235 235 235 235 235 234 232 231 230 230 229 229 231 232 234 236 236 237 238 239 240 240 242 244 247 250 254 257 262 266 269 272 275 279 283 285 287 289 290 290 290 291 295 301 306 309 311 313 314 315 316 316 316 318 320 321 325 327 326 325 325
240 236 232 229 227 227 228 231 232 232 231 230 230 231 231 232 234 235 235 236 236 236 237 238 238 238 238 238 237 237 237 238 238 237 236 235 234 233 234 235 236 237 238 239 240 241 241 240 241 242 243 246 249 254 258 260 263 265 269 273 277 280 283 286 287 287 288 289 292 295 300 305 307 309 311 312 312 313 313 314 316 318 320 323 325 322 321 322
243 240 237 234 231 230 229 230 232 233 234 233 233 234 234 235 236 237 237 238 238 238 238 239 239 239 240 240 240 239 239 239 240 240 239 239 238 239 238 238 239 240 241 241 241 242 242 242 242 244 245 246 249 253 257 258 260 263 267 270 273 276 278 281 283 285 285 287 290 292 297 303 306 308 309 310 311 311 311 313 315 317 318 320 321 319 318 318
246 243 241 238 235 233 232 231 231 233 234 234 235 235 236 237 238 239 240 240 239 239 240 240 240 241 241 241 241 241 240 240 241 241 242 241 242 242 242 242 242 243 243 242 241 241 242 243 245 247 248 248 250 253 255 257 259 262 264 267 270 272 275 276 278 280 283 286 290 293 297 303 308 309 310 310 310 311 312 313 314 315 315 316 317 316 315 315
249 246 243 241 238 236 235 234 233 233 234 234 235 236 237 238 239 240 241 241 240 240 241 241 241 241 241 241 242 242 242 242 242 242 243 243 243 243 244 244 243 243 244 243 241 240 242 244 246 249 250 251 252 254 256 258 259 261 263 265 268 270 272 273 274 275 278 283 288 293 296 300 307 310 310 309 309 310 311 312 313 313 313 314 315 313 311 311
251 249 247 245 242 239 238 236 235 235 235 235 235 236 238 239 240 241 242 243 241 240 242 242 242 242 242 242 243 243 242 242 242 243 243 243 243 244 243 244 244 243 243 243 242 242 243 246 248 250 252 254 255 256 258 259 259 261 263 264 266 268 269 270 272 273 276 280 285 292 295 297 303 309 309 310 309 308 308 310 312 312 311 312 312 310 308 309
254 252 250 249 247 244 241 238 237 237 237 237 237 237 238 239 240 241 243 244 241 239 241 243 244 244 243 243 243 242 242 242 243 244 244 244 244 244 244 244 244 244 244 244 244 245 246 247 249 251 253 255 256 258 259 261 261 261 263 264 265 266 266 267 270 273 277 280 284 291 295 296 299 305 307 308 307 306 306 307 309 309 309 309 308 307 307 309
257 255 253 251 250 248 245 242 240 238 238 239 239 239 239 239 241 241 243 245 242 238 240 243 244 244 243 243 243 243 242 242 242 243 243 244 244 244 244 244 245 245 246 246 246 247 248 249 250 251 253 254 256 258 260 262 263 262 262 263 264 264 265 267 270 273 276 278 283 289 292 293 296 301 305 305 304 304 304 304 305 306 306 306 305 304 306 307
259 258 256 254 252 251 249 247 244 241 240 240 240 240 240 240 241 242 243 245 242 239 240 242 244 245 244 244 244 244 243 242 242 243 243 244 244 245 245 245 246 246 247 248 247 248 249 250 251 252 253 254 256 258 260 262 264 263 263 263 264 265 266 268 270 273 276 277 282 287 290 291 293 298 303 302 302 302 302 302 302 302 302 302 302 302 303 305
260 259 258 257 255 252 251 249 247 245 243 241 241 241 241 241 242 243 243 244 243 241 241 242 244 245 245 244 245 245 244 244 243 243 244 244 245 245 245 246 247 247 248 248 248 249 250 250 251 252 254 255 257 259 261 263 264 264 264 264 265 266 267 269 271 274 277 279 283 286 288 291 292 297 301 300 301 301 300 300 299 299 300 300 300 300 301 302
262 260 258 258 257 255 252 251 249 248 246 244 243 242 242 242 242 243 243 244 246 245 243 243 244 245 245 245 245 245 245 245 244 244 244 245 245 246 246 247 248 249 249 250 250 250 251 251 252 253 254 256 258 259 261 263 264 264 266 267 268 269 270 271 272 275 278 281 283 285 288 290 292 298 300 300 300 299 298 298 297 297 297 297 297 297 298 299
264 262 260 258 257 256 255 253 251 249 249 247 246 245 244 243 242 243 244 245 247 246 244 244 245 245 245 246 246 246 246 246 245 245 245 246 246 246 247 248 249 250 250 251 252 252 251 252 253 254 255 257 258 260 262 263 264 265 266 268 270 272 273 273 274 276 278 281 284 286 289 289 293 299 300 300 300 298 297 296 295 295 295 294 294 295 296 296
264 263 262 260 258 257 256 255 253 250 250 249 248 248 247 245 244 244 245 244 245 247 246 244 245 245 245 245 246 246 247 247 246 246 246 246 247 247 247 248 249 251 253 253 253 253 253 253 254 256 257 258 260 261 262 263 264 265 266 268 271 274 276 276 277 278 280 283 285 288 290 291 296 300 300 300 299 297 296 296 295 294 293 293 293 292 293 293
265 263 263 262 260 258 257 257 255 253 251 249 249 250 248 247 247 247 247 245 245 249 249 246 246 246 245 245 246 246 247 247 247 247 247 247 247 248 248 249 250 252 253 253 253 254 254 254 255 257 258 259 260 261 262 263 264 265 267 269 271 274 278 279 280 281 283 285 286 289 291 294 299 301 301 300 297 295 295 295 295 294 293 292 291 291 291 291
270 266 263 262 261 260 259 257 256 255 253 251 250 250 250 250 251 251 248 246 245 248 249 248 247 247 246 245 245 246 248 248 248 248 249 249 249 249 249 250 251 252 253 255 255 255 256 255 255 256 258 259 260 261 262 264 265 266 268 270 273 275 278 280 282 284 286 286 287 290 293 297 300 302 302 299 295 294 294 295 294 294 293 292 291 290 290 290
274 271 267 264 262 261 260 258 257 256 255 253 251 250 251 252 253 252 249 246 246 248 249 249 247 248 247 245 245 247 248 249 249 249 249 250 250 249 249 250 251 252 254 255 256 256 257 256 255 256 257 258 259 261 262 264 266 268 269 271 274 276 277 280 283 285 286 287 289 291 294 298 301 302 302 298 295 295 295 295 295 295 295 294 292 292 291 290
277 274 272 269 265 262 260 259 258 257 256 255 253 252 252 252 253 253 251 249 247 248 249 249 247 248 248 247 245 247 249 250 250 250 250 250 250 250 249 250 251 252 254 255 256 256 257 258 256 256 257 258 259 261 262 264 266 268 270 272 274 276 278 281 284 285 287 288 290 292 294 298 302 303 300 297 295 295 295 295 296 296 296 295 294 293 291 290
280 278 275 273 270 266 262 260 258 257 257 256 256 255 254 253 253 254 253 251 250 249 250 250 249 248 249 249 246 246 249 251 251 251 251 250 250 250 250 250 251 253 253 254 255 256 258 259 257 256 257 258 259 260 262 264 267 269 270 272 273 276 279 281 283 285 287 289 290 292 293 298 304 301 297 295 295 294 295 295 295 295 295 295 294 293 291 290
282 281 278 275 273 270 266 263 260 258 257 256 257 257 257 256 255 254 252 251 250 250 250 251 251 249 249 250 249 246 247 250 251 251 251 251 251 251 251 251 251 252 253 254 256 257 257 259 258 257 258 259 259 261 263 265 267 268 270 271 273 277 279 280 281 284 287 288 290 291 292 299 305 299 294 295 295 295 296 296 295 295 295 295 294 293 292 291
282 282 281 278 275 272 270 267 263 260 258 257 257 258 258 258 256 255 253 251 249 249 250 251 251 250 250 250 250 247 246 248 250 251 251 251 252 252 252 251 251 252 253 254 256 257 258 259 260 259 258 259 261 262 264 264 265 267 269 272 274 276 277 279 280 282 285 286 288 291 292 300 304 297 294 296 297 298 298 297 296 295 294 294 294 294 294 292
280 282 282 280 277 274 271 270 267 264 261 259 257 257 258 257 256 256 255 252 249 248 249 251 251 251 251 250 250 249 247 247 248 250 251 251 252 253 252 251 251 252 253 254 256 257 258 259 260 260 259 259 260 261 262 263 265 267 269 271 273 274 276 277 279 281 283 284 288 290 293 300 302 295 295 298 298 299 298 297 296 294 293 294 294 295 294 293
277 279 280 280 279 276 273 271 269 268 265 263 260 258 256 256 256 255 255 254 252 249 248 250 251 252 252 252 251 251 249 248 247 248 250 251 251 252 252 252 252 252 254 255 256 257 258 259 260 260 260 260 260 260 261 263 265 266 268 270 272 272 274 276 278 280 281 284 288 290 291 297 299 295 296 298 296 296 296 295 294 294 294 295 295 295 295 295
273 275 278 280 280 278 276 273 270 269 269 267 263 260 257 255 254 254 254 254 253 251 249 249 250 251 251 252 251 251 251 250 248 247 249 251 250 250 251 252 252 253 254 255 257 258 259 260 260 260 259 259 258 258 259 261 263 265 267 269 269 271 273 275 278 280 281 283 287 288 289 295 297 295 296 296 294 295 295 294 293 293 294 294 295 297 298 298
271 272 273 276 278 278 278 276 273 271 270 269 266 263 260 257 254 253 254 253 253 252 250 248 249 251 251 251 251 251 251 251 249 247 248 250 250 250 250 251 251 252 253 255 257 258 259 260 260 260 259 258 257 258 260 262 263 264 265 266 268 270 272 274 277 279 281 284 287 286 289 294 295 294 296 295 294 294 294 294 295 295 294 295 296 298 299 299
270 270 270 272 274 276 276 277 275 273 271 270 268 266 264 261 257 255 254 254 253 252 251 249 249 250 251 251 250 250 250 251 251 250 248 249 250 251 250 251 250 251 252 254 255 256 258 259 259 260 260 260 260 260 260 259 260 261 262 263 266 268 270 273 275 277 281 285 284 284 289 292 291 293 296 295 292 294 296 297 297 296 296 295 295 295 294 292
269 268 269 269 270 272 274 275 276 275 274 272 269 267 266 265 261 257 255 254 253 252 252 251 249 250 250 251 251 250 249 250 252 252 251 250 251 252 251 251 252 252 252 253 254 255 256 257 258 259 260 260 261 259 258 257 257 259 261 262 264 267 270 271 273 277 282 283 281 284 288 289 288 290 293 292 292 294 297 298 297 296 296 295 295 294 292 290
270 269 269 269 269 270 272 273 275 275 275 274 272 269 267 266 265 262 257 254 253 253 252 251 250 250 250 251 252 251 250 250 251 252 253 252 252 252 252 253 253 253 253 253 254 255 256 256 257 258 259 259 258 258 258 258 257 259 260 262 264 266 268 269 273 278 280 278 280 285 287 285 287 290 289 289 291 294 296 297 297 297 296 295 296 296 295 294
271 270 269 269 269 270 271 272 273 275 275 275 274 271 269 267 266 265 262 257 254 253 253 251 250 250 250 250 251 252 251 250 249 250 252 252 252 252 252 252 252 252 252 252 253 254 255 256 256 257 258 258 258 258 258 258 258 259 260 262 263 264 266 269 273 276 276 276 281 286 283 283 287 290 286 287 289 291 293 295 296 297 297 297 297 298 297 295
271 271 270 270 269 270 271 272 273 274 276 277 275 273 272 269 267 266 266 262 257 254 253 252 250 250 251 250 249 249 250 251 250 249 250 251 250 250 249 248 248 250 250 250 250 252 253 255 255 256 257 257 257 258 259 259 260 260 260 261 261 261 264 269 272 273 275 277 281 282 281 282 288 290 285 285 288 289 290 292 295 297 298 299 299 299 297 293
271 271 271 271 270 270 271 272 274 275 275 277 277 275 273 271 268 266 266 265 261 255 253 252 251 251 251 250 249 248 248 250 251 248 246 247 246 245 245 245 244 245 246 247 248 249 252 254 255 256 257 256 256 257 258 259 260 261 260 259 258 260 265 270 272 273 274 277 279 279 279 284 290 289 284 285 287 287 288 291 294 297 299 299 299 299 296 291
271 271 271 271 271 271 271 272 274 275 275 277 278 277 274 272 269 268 266 264 263 259 254 251 251 253 251 249 249 250 248 247 248 247 244 243 243 242 242 242 242 242 243 245 246 247 250 252 254 255 257 257 256 257 258 259 260 260 259 257 259 265 270 271 271 271 273 276 277 277 280 286 290 287 285 285 285 284 286 289 292 296 298 298 297 298 297 294
271 271 271 272 272 271 272 273 273 274 275 277 277 276 275 273 271 270 267 263 261 262 258 252 251 253 252 248 247 250 249 246 246 247 246 244 242 242 242 242 243 243 243 244 245 246 247 250 252 254 257 257 256 255 257 259 260 260 259 260 263 267 268 267 268 271 274 275 275 277 282 286 288 288 287 285 284 284 285 288 291 294 295 295 296 296 297 296
Height
5810 5809 5809 5808 5808 5807 5807 5806 5806 5806 5806 5806 5806 5806 5805 5805 5805 5805 5804 5804 5804 5804 5805 5806 5807 5808 5809 5810 5812 5813 5814 5815 5816 5818 5819 5820 5821 5822 5823 5824 5825 5826 5827 5828 5829 5829 5830 5831 5831 5832 5832 5832 5833 5833 5834 5834 5834 5834 5835 5835 5835 5835 5835 5835 5835 5835 5835 5835 5834 5834 5833 5833 5832 5832 5832 5831 5831 5830 5830 5829 5829 5828 5828 5827 5827 5826 5826 5825
5812 5812 5811 5811 5811 5810 5810 5810 5810 5810 5810 5809 5809 5809 5809 5809 5809 5809 5809 5808 5808 5808 5808 5809 5810 5811 5812 5814 5815 5816 5818 5819 5820 5821 5822 5822 5823 5824 5825 5825 5826 5827 5828 5829 5829 5830 5831 5831 5831 5832 5833 5833 5834 5834 5835 5835 5835 5836 5836 5836 5836 5836 5836 5836 5836 5835 5835 5835 5834 5834 5833 5833 5832 5832 5832 5831 5831 5830 5830 5830 5829 5829 5828 5828 5827 5826 5825 5825
5815 5814 5814 5813 5813 5813 5813 5813 5813 5813 5813 5813 5813 5813 5813 5813 5813 5812 5812 5812 5812 5811 5812 5812 5813 5814 5815 5816 5818 5819 5820 5822 5823 5824 5824 5825 5825 5826 5827 5827 5828 5829 5829 5830 5830 5830 5831 5831 5832 5833 5834 5834 5835 5835 5836 5836 5836 5836 5836 5837 5837 5836 5836 5836 5836 5835 5835 5835 5834 5834 5833 5833 5832 5832 5832 5831 5831 5830 5830 5830 5830 5829 5829 5828 5827 5826 5825 5825
5817 5816 5816 5816 5816 5815 5815 5815 5815 5815 5815 5816 5816 5816 5816 5816 5816 5816 5816 5816 5815 5815 5815 5815 5816 5817 5818 5819 5820 5821 5822 5823 5825 5826 5826 5826 5827 5828 5828 5829 5829 5830 5830 5830 5831 5831 5831 5832 5833 5834 5835 5835 5836 5836 5836 5836 5836 5837 5837 5837 5837 5836 5836 5836 5836 5836 5835 5835 5834 5834 5833 5833 5833 5832 5832 5831 5831 5831 5831 5830 5830 5830 5829 5829 5828 5826 5825 5824
5819 5818 5818 5818 5818 5818 5818 5817 5817 5817 5817 5818 5818 5818 5818 5818 5818 5818 5818 5818 5818 5818 5818 5818 5819 5820 5820 5821 5822 5823 5824 5825 5826 5827 5828 5828 5828 5829 5829 5830 5830 5831 5831 5831 5832 5832 5833 5834 5835 5835 5836 5836 5836 5836 5837 5837 5837 5837 5837 5837 5836 5836 5836 5836 5836 5836 5836 5835 5834 5834 5833 5833 5833 5832 5832 5832 5831 5831 5831 5830 5830 5830 5829 5828 5827 5826 5825 5824
5820 5820 5820 5820 5820 5819 5819 5819 5819 5819 5819 5819 5819 5819 5820 5820 5820 5821 5821 5821 5821 5820 5821 5821 5821 5822 5823 5823 5824 5824 5825 5826 5827 5828 5829 5829 5829 5830 5831 5831 5831 5832 5832 5833 5833 5834 5834 5835 5836 5837 5837 5837 5836 5837 5837 5837 5837 5837 5837 5836 5836 5836 5836 5836 5836 5836 5835 5835 5834 5834 5833 5833 5832 5832 5832 5832 5831 5831 5831 5830 5830 5829 5828 5827 5826 5825 5824 5823
5822 5822 5822 5822 5822 5821 5821 5821 5821 5821 5821 5821 5821 5821 5821 5821 5822 5822 5823 5823 5823 5823 5823 5823 5824 5824 5825 5825 5826 5826 5827 5828 5828 5829 5830 5830 5830 5831 5832 5832 5832 5833 5834 5834 5835 5835 5836 5837 5837 5837 5837 5837 5837 5837 5837 5837 5837 5837 5836 5836 5836 5836 5836 5836 5836 5835 5835 5834 5834 5833 5833 5833 5832 5832 5832 5831 5831 5831 5830 5830 5829 5829 5828 5826 5825 5824 5824 5823
5823 5823 5823 5823 5823 5823 5822 5822 5822 5822 5822 5822 5822 5822 5823 5823 5823 5823 5824 5824 5825 5825 5825 5825 5825 5826 5827 5827 5827 5828 5828 5829 5830 5830 5831 5831 5831 5832 5832 5833 5834 5834 5835 5836 5836 5837 5837 5838 5838 5838 5838 5838 5838 5838 5837 5837 5836 5836 5836 5836 5836 5836 5836 5835 5835 5835 5834 5834 5833 5833 5833 5832 5832 5832 5832 5831 5831 5830 5830 5829 5828 5827 5826 5825 5824 5823 5823 5822
5824 5824 5824 5824 5825 5824 5824 5823 5823 5823 5823 5824 5824 5824 5824 5824 5824 5824 5825 5825 5826 5826 5826 5827 5827 5827 5828 5828 5829 5829 5829 5830 5831 5831 5832 5832 5833 5833 5833 5834 5835 5835 5836 5837 5837 5838 5838 5839 5839 5839 5839 5838 5838 5837 5837 5836 5836 5836 5836 5835 5835 5835 5835 5835 5834 5834 5833 5833 5833 5833 5832 5832 5832 5832 5832 5831 5831 5830 5829 5828 5827 5826 5825 5825 5824 5823 5822 5821
5825 5824 5824 5825 5825 5825 5825 5825 5824 5824 5824 5825 5825 5825 5825 5826 5826 5826 5826 5826 5826 5827 5827 5828 5828 5828 5828 5829 5829 5830 5830 5831 5832 5832 5832 5833 5833 5834 5834 5835 5836 5836 5837 5837 5838 5838 5839 5839 5839 5839 5839 5839 5838 5837 5837 5836 5836 5836 5836 5835 5835 5835 5835 5834 5834 5833 5833 5833 5833 5833 5832 5832 5832 5832 5832 5832 5831 5830 5829 5828 5827 5826 5825 5824 5823 5822 5821 5820
5825 5825 5825 5825 5825 5825 5826 5826 5825 5825 5825 5826 5826 5826 5826 5827 5827 5827 5827 5827 5827 5827 5828 5828 5829 5829 5829 5829 5830 5830 5830 5831 5832 5832 5833 5833 5834 5835 5835 5836 5837 5837 5837 5837 5838 5838 5839 5839 5839 5839 5839 5839 5838 5837 5837 5837 5836 5836 5836 5836 5835 5835 5834 5834 5833 5833 5833 5833 5833 5833 5833 5833 5833 5833 5832 5832 5831 5830 5829 5828 5827 5826 5824 5823 5822 5821 5820 5819
5825 5826 5825 5825 5825 5825 5826 5826 5826 5826 5826 5826 5827 5827 5827 5828 5828 5828 5828 5828 5828 5828 5829 5829 5829 5829 5830 5830 5830 5830 5831 5831 5832 5832 5832 5833 5834 5835 5836 5836 5837 5837 5838 5838 5838 5839 5839 5839 5839 5839 5839 5838 5838 5838 5837 5837 5837 5837 5836 5836 5836 5835 5834 5834 5833 5833 5834 5834 5834 5835 5835 5834 5834 5833 5832 5831 5830 5829 5829 5828 5827 5826 5824 5823 5821 5820 5819 5818
5825 5825 5825 5825 5825 5825 5825 5826 5827 5827 5827 5827 5827 5827 5828 5828 5828 5829 5829 5829 5829 5829 5829 5829 5830 5830 5830 5831 5831 5831 5831 5832 5832 5832 5833 5833 5834 5835 5836 5836 5837 5838 5838 5838 5839 5839 5839 5839 5839 5839 5839 5838 5838 5838 5837 5837 5837 5837 5837 5836 5836 5835 5834 5834 5834 5834 5835 5836 5836 5836 5835 5835 5834 5833 5832 5831 5830 5830 5829 5828 5826 5825 5824 5822 5821 5820 5818 5817
5824 5824 5825 5825 5825 5825 5825 5825 5826 5827 5827 5827 5827 5828 5828 5829 5829 5829 5829 5829 5830 5830 5830 5830 5830 5830 5831 5831 5831 5831 5831 5832 5832 5833 5833 5833 5834 5835 5835 5836 5837 5837 5838 5838 5838 5838 5839 5839 5839 5839 5839 5838 5838 5838 5837 5837 5837 5837 5837 5836 5836 5835 5835 5835 5835 5836 5836 5837 5837 5836 5836 5835 5834 5833 5832 5831 5830 5829 5828 5827 5826 5824 5823 5822 5821 5819 5818 5816
5823 5823 5824 5825 5825 5825 5825 5825 5825 5826 5827 5827 5828 5828 5828 5829 5829 5829 5830 5830 5830 5830 5830 5830 5830 5831 5831 5831 5832 5832 5832 5832 5832 5833 5833 5834 5834 5835 5835 5836 5836 5837 5837 5838 5838 5838 5838 5838 5838 5838 5838 5838 5838 5838 5837 5837 5837 5837 5837 5836 5836 5836 5836 5836 5836 5836 5837 5837 5837 5836 5836 5835 5834 5833 5832 5831 5830 5829 5827 5826 5825 5824 5823 5822 5821 5819 5818 5816
5821 5822 5823 5824 5824 5824 5824 5824 5825 5825 5826 5826 5827 5828 5828 5828 5829 5829 5830 5830 5830 5830 5830 5830 5830 5831 5831 5832 5832 5832 5832 5832 5833 5833 5833 5834 5834 5835 5835 5836 5836 5837 5837 5837 5838 5838 5838 5838 5838 5838 5838 5838 5838 5837 5837 5837 5837 5837 5836 5836 5836 5836 5836 5836 5836 5837 5837 5837 5836 5836 5835 5835 5834 5832 5831 5830 5829 5828 5826 5825 5825 5824 5823 5822 5821 5819 5817 5816
5819 5820 5821 5822 5823 5823 5823 5823 5824 5824 5824 5825 5826 5827 5827 5827 5828 5828 5829 5829 5829 5830 5830 5830 5830 5831 5831 5832 5832 5832 5832 5832 5832 5833 5833 5834 5834 5835 5835 5835 5836 5836 5837 5837 5837 5837 5837 5838 5838 5838 5838 5837 5837 5837 5837 5837 5837 5836 5836 5836 5835 5835 5835 5836 5836 5836 5837 5836 5836 5835 5835 5834 5833 5832 5830 5829 5828 5827 5825 5825 5824 5823 5822 5821 5820 5819 5817 5816
5817 5818 5819 5820 5821 5822 5822 5822 5823 5823 5823 5824 5825 5825 5826 5826 5827 5827 5828 5828 5829 5829 5829 5830 5830 5830 5830 5831 5831 5831 5831 5832 5832 5832 5833 5833 5834 5834 5835 5835 5835 5836 5836 5836 5837 5837 5837 5837 5837 5837 5837 5837 5837 5837 5836 5836 5836 5836 5835 5835 5835 5835 5835 5835 5835 5836 5836 5836 5835 5835 5834 5833 5832 5831 5829 5828 5827 5826 5825 5824 5823 5822 5821 5820 5819 5818 5816 5815
5816 5816 5817 5818 5819 5819 5820 5821 5821 5821 5822 5822 5823 5824 5824 5825 5825 5826 5826 5826 5827 5828 5828 5829 5829 5829 5829 5830 5830 5830 5831 5831 5831 5832 5832 5832 5833 5833 5834 5834 5835 5835 5836 5836 5836 5836 5836 5837 5837 5837 5836 5836 5836 5836 5836 5836 5835 5835 5835 5835 5835 5835 5835 5835 5835 5835 5834 5834 5834 5834 5833 5832 5831 5830 5828 5827 5826 5825 5824 5823 5822 5821 5820 5819 5818 5816 5815 5814
5814 5814 5815 5815 5816 5817 5818 5818 5819 5820 5820 5820 5821 5822 5822 5823 5823 5824 5824 5825 5825 5826 5827 5827 5828 5828 5828 5829 5829 5829 5830 5830 5831 5831 5831 5832 5832 5833 5833 5834 5834 5834 5835 5835 5835 5835 5836 5836 5836 5836 5836 5836 5835 5835 5835 5835 5835 5834 5834 5834 5834 5834 5834 5834 5834 5834 5833 5833 5833 5832 5832 5831 5830 5829 5827 5826 5825 5824 5823 5821 5820 5819 5818 5817 5816 5815 5814 5812
5812 5812 5813 5813 5814 5814 5815 5816 5817 5817 5818 5819 5819 5820 5820 5821 5821 5822 5822 5823 5823 5824 5825 5825 5826 5827 5827 5827 5828 5828 5829 5829 5830 5830 5830 5831 5831 5832 5832 5832 5833 5833 5834 5834 5834 5834 5834 5835 5835 5835 5835 5835 5835 5834 5834 5834 5834 5834 5834 5834 5834 5833 5833 5833 5833 5833 5832 5831 5831 5831 5830 5829 5828 5827 5826 5825 5824 5822 5821 5820 5819 5818 5817 5816 5814 5813 5812 5811
5810 5810 5811 5811 5811 5812 5813 5814 5814 5815 5816 5816 5817 5817 5818 5818 5819 5819 5820 5821 5821 5822 5823 5823 5824 5825 5825 5826 5826 5827 5828 5828 5829 5829 5830 5830 5830 5831 5831 5831 5832 5832 5832 5833 5833 5833 5833 5834 5834 5833 5834 5833 5833 5833 5833 5833 5833 5833 5833 5833 5833 5832 5832 5832 5832 5831 5831 5830 5829 5829 5829 5828 5827 5826 5825 5824 5822 5821 5820 5819 5817 5816 5815 5814 5813 5811 5810 5809
5808 5808 5808 5809 5809 5809 5810 5811 5812 5812 5813 5814 5814 5814 5815 5816 5816 5816 5817 5818 5819 5820 5821 5821 5822 5822 5823 5824 5825 5826 5826 5827 5827 5828 5828 5829 5829 5829 5830 5830 5830 5831 5831 5831 5832 5832 5832 5832 5832 5832 5832 5832 5832 5832 5832 5832 5832 5832 5832 5832 5831 5831 5831 5831 5830 5830 5829 5828 5828 5827 5827 5826 5825 5825 5824 5822 5821 5820 5818 5817 5816 5815 5813 5812 5811 5809 5808 5807
5805 5805 5805 5806 5807 5807 5807 5808 5809 5809 5810 5811 5811 5811 5812 5813 5813 5814 5814 5815 5816 5817 5818 5819 5820 5820 5821 5822 5823 5824 5825 5825 5825 5826 5826 5827 5828 5828 5828 5829 5829 5829 5830 5830 5830 5830 5831 5831 5831 5831 5831 5831 5831 5831 5831 5831 5831 5831 5830 5830 5830 5830 5829 5829 5829 5828 5827 5827 5826 5825 5825 5825 5824 5823 5822 5821 5820 5819 5817 5816 5814 5813 5812 5810 5809 5808 5806 5805
5802 5802 5802 5803 5803 5804 5804 5805 5806 5806 5806 5807 5808 5808 5809 5809 5810 5810 5811 5811 5813 5815 5815 5816 5818 5818 5819 5820 5821 5822 5823 5823 5824 5824 5825 5825 5826 5826 5827 5827 5827 5828 5828 5828 5828 5829 5829 5829 5829 5829 5829 5829 5829 5829 5829 5829 5829 5829 5829 5829 5828 5828 5828 5827 5827 5826 5825 5825 5824 5823 5822 5823 5822 5821 5820 5819 5818 5817 5816 5815 5813 5812 5810 5809 5807 5806 5804 5803
5799 5799 5799 5799 5800 5801 5801 5802 5803 5803 5803 5804 5804 5805 5805 5806 5807 5807 5808 5808 5809 5811 5812 5814 5815 5816 5817 5819 5820 5820 5820 5821 5822 5822 5823 5823 5823 5824 5824 5825 5825 5826 5826 5826 5826 5827 5827 5827 5827 5827 5827 5827 5827 5827 5827 5827 5828 5827 5827 5827 5827 5826 5826 5825 5824 5824 5823 5823 5822 5821 5819 5819 5821 5820 5818 5818 5816 5815 5815 5813 5812 5810 5809 5807 5806 5804 5803 5801
5796 5796 5796 5796 5796 5797 5797 5798 5799 5800 5800 5800 5801 5801 5802 5802 5803 5804 5804 5803 5805 5809 5810 5811 5813 5814 5816 5817 5817 5817 5817 5819 5819 5820 5820 5821 5821 5822 5822 5823 5823 5823 5823 5824 5824 5825 5825 5825 5825 5825 5825 5826 5826 5826 5826 5825 5825 5825 5825 5825 5824 5824 5823 5823 5822 5821 5821 5820 5820 5819 5817 5816 5818 5818 5817 5816 5815 5813 5812 5811 5810 5808 5807 5805 5804 5802 5801 5799
5793 5793 5793 5793 5793 5793 5793 5794 5795 5796 5797 5797 5797 5798 5798 5798 5799 5800 5800 5798 5801 5806 5808 5809 5810 5811 5813 5814 5814 5814 5815 5817 5817 5817 5818 5818 5818 5819 5819 5820 5820 5821 5821 5821 5822 5823 5822 5823 5823 5823 5823 5823 5824 5824 5823 5823 5823 5823 5823 5822 5822 5821 5821 5821 5820 5819 5818 5818 5818 5818 5815 5814 5815 5816 5815 5814 5813 5811 5810 5809 5808 5806 5805 5803 5802 5800 5799 5797
5789 5789 5789 5790 5790 5790 5790 5790 5791 5792 5793 5793 5794 5794 5794 5795 5795 5796 5795 5793 5797 5804 5806 5806 5807 5808 5810 5811 5811 5812 5813 5813 5814 5814 5815 5815 5815 5816 5817 5817 5817 5818 5818 5819 5820 5820 5820 5820 5820 5821 5821 5821 5821 5821 5821 5821 5821 5821 5820 5820 5819 5819 5818 5818 5817 5817 5815 5815 5816 5815 5813 5811 5811 5814 5813 5811 5810 5809 5807 5806 5805 5804 5802 5801 5799 5798 5796 5795
5785 5785 5785 5785 5786 5786 5786 5786 5787 5787 5788 5789 5789 5790 5790 5791 5791 5790 5789 5789 5795 5801 5802 5802 5804 5806 5807 5808 5808 5809 5809 5810 5811 5811 5811 5812 5812 5813 5814 5814 5814 5815 5815 5816 5817 5817 5817 5818 5818 5818 5819 5819 5819 5819 5819 5819 5818 5818 5818 5817 5817 5816 5816 5815 5814 5814 5812 5813 5813 5812 5811 5809 5808 5811 5810 5808 5807 5805 5804 5803 5801 5800 5799 5798 5796 5795 5793 5792
5781 5781 5781 5781 5781 5782 5782 5782 5783 5784 5784 5785 5785 5785 5786 5786 5786 5784 5783 5789 5795 5797 5797 5799 5801 5802 5803 5804 5805 5805 5806 5806 5807 5808 5808 5808 5809 5810 5810 5811 5811 5812 5812 5813 5814 5815 5815 5815 5815 5816 5816 5816 5816 5816 5816 5816 5816 5815 5815 5814 5814 5813 5813 5812 5812 5811 5810 5810 5810 5809 5808 5806 5806 5808 5807 5804 5803 5802 5800 5799 5798 5797 5795 5794 5793 5791 5790 5789
5776 5776 5777 5777 5777 5777 5778 5778 5779 5780 5780 5781 5781 5780 5781 5781 5779 5778 5783 5791 5793 5790 5792 5795 5796 5798 5799 5800 5801 5801 5802 5803 5804 5804 5804 5805 5806 5806 5807 5808 5808 5808 5809 5810 5811 5811 5811 5811 5812 5813 5813 5813 5813 5813 5813 5813 5813 5812 5812 5811 5811 5810 5809 5808 5808 5808 5807 5807 5807 5806 5805 5803 5804 5805 5803 5800 5798 5797 5795 5794 5793 5792 5791 5790 5789 5788 5787 5786
5771 5772 5772 5772 5773 5773 5773 5774 5775 5775 5776 5776 5776 5776 5776 5774 5773 5776 5783 5789 5788 5785 5788 5791 5791 5793 5794 5795 5797 5798 5798 5799 5800 5800 5800 5801 5802 5803 5803 5804 5805 5805 5805 5807 5807 5807 5807 5808 5809 5809 5810 5810 5810 5810 5810 5810 5809 5809 5809 5808 5808 5807 5805 5804 5804 5804 5804 5803 5803 5803 5801 5800 5801 5802 5800 5797 5794 5792 5790 5789 5788 5788 5787 5786 5784 5784 5783 5783
5766 5767 5767 5767 5768 5769 5769 5770 5770 5771 5771 5771 5771 5771 5770 5768 5769 5776 5782 5785 5785 5782 5784 5786 5786 5788 5789 5791 5792 5793 5794 5794 5795 5796 5796 5797 5798 5799 5800 5801 5802 5802 5802 5802 5802 5803 5803 5804 5806 5806 5806 5807 5807 5807 5806 5806 5806 5805 5806 5805 5805 5804 5802 5800 5800 5800 5799 5799 5799 5799 5798 5797 5798 5797 5795 5793 5790 5787 5786 5785 5784 5783 5782 5781 5780 5780 5779 5779
5761 5761 5762 5762 5763 5764 5765 5765 5765 5766 5766 5767 5767 5765 5764 5765 5769 5775 5779 5780 5780 5779 5779 5781 5782 5782 5784 5786 5787 5788 5789 5790 5791 5792 5792 5793 5794 5795 5797 5798 5798 5798 5798 5798 5798 5798 5798 5800 5803 5802 5802 5803 5803 5803 5803 5802 5802 5802 5802 5802 5801 5801 5799 5796 5795 5796 5795 5793 5794 5796 5795 5795 5795 5793 5791 5788 5785 5783 5782 5781 5780 5779 5778 5777 5776 5776 5775 5775
5756 5756 5756 5757 5758 5759 5759 5760 5760 5761 5761 5761 5761 5759 5761 5763 5766 5770 5773 5775 5775 5774 5775 5777 5777 5777 5778 5780 5782 5784 5785 5785 5786 5787 5788 5789 5790 5791 5793 5794 5794 5794 5794 5794 5794 5793 5793 5795 5798 5798 5798 5799 5799 5799 5799 5799 5798 5798 5798 5798 5798 5797 5795 5793 5791 5791 5790 5788 5789 5791 5791 5792 5793 5790 5788 5784 5781 5779 5778 5777 5776 5775 5775 5773 5772 5772 5771 5771
5751 5751 5751 5752 5753 5753 5754 5754 5755 5756 5756 5756 5754 5756 5759 5761 5763 5765 5768 5770 5771 5770 5770 5771 5772 5772 5773 5775 5778 5780 5780 5780 5781 5782 5783 5784 5784 5786 5789 5790 5790 5790 5790 5790 5789 5788 5788 5790 5793 5794 5793 5794 5795 5794 5795 5795 5794 5794 5794 5794 5794 5792 5792 5791 5788 5787 5786 5783 5784 5786 5787 5789 5790 5787 5784 5780 5777 5776 5774 5773 5772 5771 5771 5770 5769 5768 5768 5767
5746 5746 5746 5747 5747 5747 5748 5748 5749 5750 5750 5750 5750 5752 5754 5757 5760 5762 5763 5765 5766 5766 5765 5766 5767 5768 5768 5770 5773 5776 5776 5775 5777 5778 5778 5779 5779 5781 5785 5786 5786 5786 5786 5786 5784 5784 5784 5784 5786 5789 5789 5789 5790 5790 5790 5792 5791 5790 5790 5790 5789 5788 5787 5787 5784 5782 5782 5779 5778 5781 5783 5786 5787 5784 5779 5776 5773 5772 5771 5770 5769 5768 5767 5766 5765 5764 5764 5764
5741 5741 5741 5741 5741 5741 5742 5742 5743 5743 5744 5745 5747 5748 5750 5754 5757 5757 5757 5759 5760 5760 5760 5760 5761 5762 5763 5765 5768 5770 5771 5771 5772 5773 5773 5773 5774 5777 5780 5781 5781 5781 5781 5781 5780 5779 5780 5779 5779 5783 5785 5784 5785 5786 5787 5788 5786 5785 5785 5785 5785 5784 5782 5782 5781 5779 5778 5775 5774 5774 5778 5783 5784 5779 5774 5771 5769 5768 5768 5767 5765 5764 5763 5762 5762 5761 5760 5760
5735 5736 5736 5735 5735 5735 5736 5736 5737 5737 5738 5740 5742 5744 5745 5749 5751 5751 5752 5753 5754 5755 5754 5754 5756 5757 5758 5760 5762 5764 5765 5766 5767 5768 5767 5768 5770 5773 5775 5776 5776 5777 5776 5776 5775 5775 5776 5774 5774 5777 5780 5779 5781 5782 5782 5782 5781 5780 5780 5781 5781 5780 5778 5777 5776 5776 5775 5772 5770 5769 5771 5779 5781 5774 5770 5768 5766 5765 5764 5763 5762 5761 5760 5759 5758 5758 5757 5757
5730 5731 5731 5729 5730 5730 5730 5730 5731 5731 5732 5734 5737 5738 5739 5741 5744 5746 5747 5748 5749 5749 5748 5748 5749 5751 5752 5754 5756 5758 5760 5760 5761 5762 5762 5763 5766 5769 5769 5770 5771 5771 5771 5771 5771 5771 5771 5770 5769 5771 5774 5775 5776 5777 5776 5775 5776 5776 5776 5776 5777 5775 5773 5772 5771 5773 5772 5768 5767 5765 5765 5774 5777 5770 5767 5766 5762 5761 5760 5759 5758 5757 5756 5756 5755 5754 5754 5753
5725 5726 5724 5723 5724 5724 5724 5725 5725 5725 5726 5729 5731 5731 5731 5733 5736 5739 5741 5741 5742 5743 5744 5743 5743 5745 5747 5749 5751 5752 5753 5754 5755 5756 5756 5758 5762 5763 5764 5766 5766 5767 5766 5766 5766 5766 5765 5764 5764 5765 5768 5770 5770 5771 5770 5771 5771 5771 5771 5772 5772 5770 5769 5768 5766 5768 5767 5765 5765 5761 5760 5769 5772 5766 5765 5763 5759 5758 5756 5755 5754 5753 5752 5752 5751 5751 5750 5750
5719 5720 5719 5717 5718 5719 5718 5719 5720 5720 5720 5722 5723 5723 5724 5726 5728 5732 5734 5735 5735 5737 5738 5738 5738 5739 5741 5742 5744 5746 5747 5747 5747 5750 5751 5753 5756 5758 5758 5760 5761 5762 5762 5761 5761 5762 5760 5759 5760 5761 5762 5763 5764 5765 5766 5766 5766 5766 5767 5767 5766 5765 5764 5763 5762 5762 5762 5762 5763 5757 5756 5764 5767 5763 5762 5760 5755 5754 5753 5751 5751 5750 5749 5749 5748 5748 5747 5747
5712 5714 5714 5711 5711 5712 5713 5714 5715 5714 5714 5715 5715 5716 5717 5718 5721 5724 5726 5728 5729 5730 5731 5732 5732 5732 5734 5736 5737 5739 5741 5740 5740 5743 5745 5746 5750 5752 5753 5755 5756 5756 5756 5756 5757 5757 5755 5754 5754 5755 5756 5757 5759 5761 5762 5763 5762 5762 5763 5762 5761 5761 5760 5758 5758 5757 5756 5759 5759 5754 5753 5760 5762 5759 5759 5755 5750 5750 5750 5748 5748 5747 5746 5745 5745 5745 5744 5744
5705 5706 5707 5706 5705 5706 5707 5708 5708 5708 5709 5708 5708 5710 5710 5711 5715 5717 5719 5721 5722 5723 5724 5726 5727 5727 5728 5729 5730 5732 5734 5734 5734 5736 5739 5741 5744 5746 5747 5748 5749 5750 5751 5751 5751 5751 5750 5748 5749 5750 5751 5753 5756 5757 5757 5758 5757 5756 5757 5758 5756 5756 5755 5754 5753 5752 5753 5755 5753 5750 5751 5755 5757 5757 5754 5750 5745 5746 5747 5745 5744 5744 5743 5742 5741 5741 5741 5740
5697 5698 5700 5700 5699 5699 5700 5702 5701 5701 5703 5702 5701 5703 5704 5705 5708 5709 5711 5713 5715 5716 5717 5718 5721 5721 5721 5723 5724 5725 5727 5729 5729 5730 5734 5737 5738 5740 5742 5742 5743 5744 5745 5745 5745 5744 5743 5742 5743 5744 5745 5749 5752 5752 5751 5752 5752 5751 5752 5752 5751 5751 5750 5749 5747 5749 5751 5749 5746 5748 5749 5748 5751 5755 5752 5745 5741 5742 5743 5741 5740 5740 5739 5737 5737 5737 5736 5736
5688 5689 5691 5691 5691 5693 5694 5695 5695 5695 5696 5695 5695 5697 5698 5699 5700 5701 5703 5706 5707 5709 5709 5711 5714 5715 5716 5717 5717 5718 5721 5723 5724 5725 5728 5730 5731 5734 5736 5737 5738 5738 5739 5739 5738 5736 5735 5735 5738 5739 5739 5744 5746 5745 5745 5746 5747 5747 5747 5747 5747 5746 5744 5743 5744 5747 5747 5742 5741 5746 5746 5741 5746 5752 5748 5741 5738 5738 5738 5736 5735 5735 5734 5733 5733 5732 5732 5731
5679 5680 5681 5680 5682 5686 5687 5687 5688 5688 5689 5689 5689 5690 5692 5693 5694 5694 5697 5698 5699 5701 5702 5703 5707 5709 5710 5711 5710 5711 5714 5716 5718 5720 5721 5723 5725 5727 5729 5731 5731 5731 5732 5731 5730 5729 5727 5727 5731 5732 5733 5737 5739 5739 5739 5740 5741 5741 5741 5741 5742 5740 5739 5740 5743 5743 5740 5737 5738 5742 5739 5736 5741 5746 5743 5738 5735 5734 5734 5732 5730 5730 5730 5729 5728 5727 5727 5726
5671 5671 5671 5669 5671 5677 5679 5679 5680 5681 5682 5681 5682 5685 5687 5687 5688 5689 5689 5689 5690 5695 5695 5696 5701 5704 5702 5702 5701 5703 5707 5710 5712 5714 5714 5714 5716 5718 5721 5723 5724 5724 5723 5723 5722 5722 5719 5720 5724 5726 5727 5731 5733 5733 5734 5735 5734 5735 5735 5735 5735 5734 5735 5737 5738 5738 5735 5734 5736 5736 5731 5732 5738 5741 5738 5735 5732 5729 5729 5728 5726 5726 5726 5725 5724 5723 5722 5721
5662 5661 5661 5658 5662 5668 5669 5670 5671 5672 5673 5674 5675 5680 5682 5679 5680 5681 5680 5680 5683 5686 5688 5690 5695 5695 5692 5693 5693 5697 5703 5704 5703 5704 5704 5703 5706 5709 5711 5713 5714 5714 5714 5714 5715 5715 5713 5714 5717 5719 5720 5723 5726 5727 5728 5728 5728 5728 5728 5728 5728 5730 5733 5733 5734 5733 5731 5730 5732 5730 5725 5727 5734 5735 5732 5731 5729 5725 5724 5724 5722 5721 5721 5721 5720 5719 5717 5717
5653 5652 5650 5648 5652 5659 5659 5661 5662 5661 5664 5668 5669 5672 5672 5670 5672 5672 5670 5673 5676 5677 5680 5684 5686 5682 5681 5685 5689 5695 5698 5694 5691 5693 5693 5694 5698 5700 5701 5703 5704 5704 5705 5707 5707 5708 5708 5708 5711 5714 5713 5715 5720 5721 5720 5721 5721 5718 5717 5720 5725 5728 5729 5729 5729 5729 5728 5727 5726 5723 5721 5724 5729 5729 5727 5727 5725 5721 5719 5720 5718 5717 5716 5715 5715 5714 5713 5712
5643 5643 5641 5638 5641 5648 5650 5651 5652 5651 5656 5662 5662 5662 5662 5662 5664 5663 5661 5666 5670 5670 5671 5674 5675 5672 5672 5679 5686 5690 5688 5681 5681 5685 5685 5686 5690 5692 5693 5695 5696 5696 5698 5699 5700 5701 5702 5703 5706 5708 5706 5707 5713 5715 5714 5716 5711 5703 5708 5719 5725 5725 5724 5723 5723 5724 5725 5722 5719 5718 5719 5721 5722 5722 5722 5722 5720 5717 5715 5716 5715 5714 5712 5710 5710 5710 5709 5707